• In Kazakhstan
  • List of Countries
  • For 7 days
  • Water Temperature
  • Satellite Maps
  • Weather Map
  • News
  • Weather Widgets
  • user-avatar
    Login

    Hourly Weather Berezki

    Today, 20 February, Wednesday

    Time Temperature Precipitation Wind Pressure Humidity
    00:00 -1°C° 0 mm 2 mps 698 mmHg 91%
    01:00 -1°C° 0 mm 2 mps 697 mmHg 91%
    02:00 0°C° 0 mm 1 mps 697 mmHg 93%
    03:00 +1°C° 0.1 mm 1 mps 697 mmHg 93%
    04:00 +1°C° 0.1 mm 1 mps 697 mmHg 93%
    05:00 +2°C° 0.1 mm 1 mps 698 mmHg 93%
    06:00 +2°C° 0.2 mm 1 mps 698 mmHg 94%
    07:00 +2°C° 0.2 mm 1 mps 698 mmHg 95%
    08:00 +2°C° 0 mm 1 mps 698 mmHg 96%
    09:00 +1°C° 0 mm 2 mps 698 mmHg 92%
    10:00 +2°C° 0 mm 2 mps 699 mmHg 88%
    11:00 +1°C° 0 mm 3 mps 699 mmHg 85%
    12:00 +1°C° 0.1 mm 3 mps 699 mmHg 82%
    13:00 +2°C° 0.1 mm 3 mps 699 mmHg 80%
    14:00 +2°C° 0 mm 3 mps 700 mmHg 77%
    15:00 +2°C° 0.1 mm 3 mps 700 mmHg 78%
    16:00 +2°C° 0.1 mm 3 mps 700 mmHg 78%
    17:00 +2°C° 0.1 mm 2 mps 700 mmHg 79%
    18:00 +1°C° 0 mm 2 mps 700 mmHg 83%
    19:00 -1°C° 0 mm 2 mps 700 mmHg 86%
    20:00 0°C° 0 mm 1 mps 700 mmHg 90%
    21:00 0°C° 0 mm 1 mps 701 mmHg 91%
    22:00 0°C° 0 mm 1 mps 701 mmHg 92%
    23:00 0°C° 0 mm 1 mps 701 mmHg 93%

    Tomorrow, 21 February, Thursday

    Time Temperature Precipitation Wind Pressure Humidity
    00:00 0°C° 0 mm 1 mps 702 mmHg 93%
    01:00 0°C° 0 mm 1 mps 702 mmHg 94%
    02:00 0°C° 0 mm 1 mps 702 mmHg 94%
    03:00 0°C° 0 mm 1 mps 702 mmHg 94%
    04:00 -1°C° 0 mm 1 mps 702 mmHg 94%
    05:00 -1°C° 0 mm 1 mps 702 mmHg 95%
    06:00 -1°C° 0 mm 1 mps 703 mmHg 94%
    07:00 0°C° 0 mm 1 mps 703 mmHg 94%
    08:00 0°C° 0 mm 1 mps 703 mmHg 93%
    09:00 +1°C° 0 mm 1 mps 703 mmHg 88%
    10:00 +1°C° 0 mm 2 mps 703 mmHg 83%
    11:00 +2°C° 0 mm 2 mps 704 mmHg 78%
    12:00 +3°C° 0 mm 2 mps 704 mmHg 77%
    13:00 +2°C° 0 mm 3 mps 703 mmHg 75%
    14:00 +3°C° 0 mm 3 mps 703 mmHg 73%
    15:00 +2°C° 0 mm 3 mps 703 mmHg 76%
    16:00 +3°C° 0 mm 2 mps 702 mmHg 79%
    17:00 +2°C° 0 mm 2 mps 702 mmHg 82%
    18:00 +2°C° 0 mm 2 mps 702 mmHg 83%
    19:00 0°C° 0 mm 3 mps 702 mmHg 85%
    20:00 0°C° 0 mm 3 mps 702 mmHg 86%
    21:00 0°C° 0.2 mm 3 mps 701 mmHg 86%
    22:00 0°C° 0.2 mm 3 mps 701 mmHg 87%
    23:00 0°C° 0.2 mm 3 mps 701 mmHg 87%

    Day after tomorrow, 22 February, Friday

    Time Temperature Precipitation Wind Pressure Humidity
    00:00 0°C° 0.6 mm 3 mps 700 mmHg 89%
    01:00 +1°C° 0.6 mm 2 mps 700 mmHg 91%
    02:00 +1°C° 0.6 mm 2 mps 700 mmHg 92%
    03:00 -1°C° 0.6 mm 2 mps 699 mmHg 93%
    04:00 -1°C° 0.6 mm 2 mps 698 mmHg 95%
    05:00 -1°C° 0.6 mm 2 mps 698 mmHg 96%
    06:00 +1°C° 0.9 mm 1 mps 698 mmHg 96%
    07:00 +1°C° 0.9 mm 1 mps 698 mmHg 96%
    08:00 +1°C° 0.9 mm 1 mps 698 mmHg 97%
    09:00 -2°C° 1 mm 2 mps 699 mmHg 96%
    10:00 -3°C° 1 mm 4 mps 700 mmHg 95%
    11:00 -5°C° 1 mm 5 mps 700 mmHg 95%
    12:00 -6°C° 0.1 mm 5 mps 701 mmHg 91%
    13:00 -6°C° 0.1 mm 6 mps 702 mmHg 87%
    14:00 -8°C° 0.1 mm 7 mps 703 mmHg 84%
    15:00 -9°C° 0 mm 7 mps 703 mmHg 82%
    16:00 -9°C° 0 mm 7 mps 704 mmHg 79%
    17:00 -10°C° 0 mm 6 mps 704 mmHg 77%
    18:00 -12°C° 0 mm 7 mps 705 mmHg 78%
    19:00 -13°C° 0 mm 7 mps 706 mmHg 79%
    20:00 -14°C° 0 mm 7 mps 706 mmHg 79%
    21:00 -14°C° 0 mm 6 mps 707 mmHg 78%
    22:00 -14°C° 0 mm 6 mps 708 mmHg 77%
    23:00 -15°C° 0 mm 6 mps 708 mmHg 76%

    23 February, Saturday

    Time Temperature Precipitation Wind Pressure Humidity
    00:00 -15°C° 0 mm 6 mps 708 mmHg 75%
    01:00 -14°C° 0 mm 5 mps 709 mmHg 75%
    02:00 -14°C° 0 mm 5 mps 709 mmHg 74%
    03:00 -14°C° 0 mm 5 mps 709 mmHg 75%
    04:00 -15°C° 0 mm 5 mps 709 mmHg 75%
    05:00 -15°C° 0 mm 5 mps 709 mmHg 76%
    06:00 -15°C° 0 mm 5 mps 710 mmHg 77%
    07:00 -15°C° 0 mm 5 mps 710 mmHg 78%
    08:00 -15°C° 0 mm 5 mps 710 mmHg 78%
    09:00 -14°C° 0 mm 5 mps 710 mmHg 75%
    10:00 -13°C° 0 mm 5 mps 711 mmHg 72%
    11:00 -12°C° 0 mm 5 mps 711 mmHg 69%
    12:00 -12°C° 0 mm 5 mps 711 mmHg 67%
    13:00 -11°C° 0 mm 5 mps 712 mmHg 65%
    14:00 -10°C° 0 mm 5 mps 712 mmHg 63%
    15:00 -10°C° 0 mm 4 mps 711 mmHg 64%
    16:00 -10°C° 0 mm 4 mps 711 mmHg 64%
    17:00 -10°C° 0 mm 4 mps 711 mmHg 65%
    18:00 -10°C° 0 mm 3 mps 711 mmHg 68%
    19:00 -12°C° 0 mm 3 mps 711 mmHg 71%
    20:00 -10°C° 0 mm 2 mps 711 mmHg 75%
    21:00 -12°C° 0 mm 2 mps 711 mmHg 76%
    22:00 -12°C° 0 mm 2 mps 711 mmHg 78%
    23:00 -10°C° 0 mm 1 mps 711 mmHg 80%

    24 February, Sunday

    Time Temperature Precipitation Wind Pressure Humidity
    00:00 -10°C° 0 mm 1 mps 711 mmHg 81%
    01:00 -10°C° 0 mm 1 mps 711 mmHg 82%
    02:00 -11°C° 0 mm 1 mps 711 mmHg 83%
    03:00 -11°C° 0 mm 1 mps 711 mmHg 83%
    04:00 -11°C° 0 mm 1 mps 710 mmHg 82%
    05:00 -11°C° 0 mm 1 mps 710 mmHg 82%
    06:00 -11°C° 0 mm 1 mps 710 mmHg 79%
    07:00 -10°C° 0 mm 1 mps 710 mmHg 77%
    08:00 -10°C° 0 mm 1 mps 710 mmHg 75%
    09:00 -8°C° 0 mm 1 mps 710 mmHg 67%
    10:00 -6°C° 0 mm 1 mps 711 mmHg 59%
    11:00 -3°C° 0 mm 1 mps 711 mmHg 50%
    12:00 -2°C° 0 mm 1 mps 711 mmHg 53%
    13:00 -1°C° 0 mm 1 mps 710 mmHg 55%
    14:00 0°C° 0 mm 1 mps 710 mmHg 58%
    15:00 0°C° 0 mm 1 mps 710 mmHg 61%
    16:00 0°C° 0 mm 1 mps 709 mmHg 64%
    17:00 0°C° 0 mm 1 mps 709 mmHg 67%
    18:00 -1°C° 0 mm 1 mps 709 mmHg 69%
    19:00 -1°C° 0 mm 1 mps 709 mmHg 71%
    20:00 -2°C° 0 mm 1 mps 708 mmHg 72%
    21:00 -2°C° 0.1 mm 1 mps 708 mmHg 76%
    22:00 -2°C° 0.1 mm 1 mps 708 mmHg 79%
    23:00 -2°C° 0.1 mm 1 mps 708 mmHg 82%

    25 February, Monday

    Time Temperature Precipitation Wind Pressure Humidity
    00:00 -2°C° 0 mm 1 mps 707 mmHg 83%
    01:00 -2°C° 0 mm 1 mps 707 mmHg 84%
    02:00 -2°C° 0 mm 1 mps 706 mmHg 85%
    03:00 -2°C° 0.1 mm 1 mps 706 mmHg 87%
    04:00 -2°C° 0.1 mm 1 mps 706 mmHg 89%
    05:00 -4°C° 0.1 mm 2 mps 705 mmHg 90%
    06:00 -4°C° 0.2 mm 3 mps 705 mmHg 91%
    07:00 -3°C° 0.2 mm 4 mps 705 mmHg 91%
    08:00 -3°C° 0.2 mm 4 mps 705 mmHg 91%
    09:00 -4°C° 0.1 mm 5 mps 705 mmHg 89%
    10:00 -4°C° 0.1 mm 6 mps 705 mmHg 87%
    11:00 -4°C° 0.1 mm 6 mps 705 mmHg 85%
    12:00 -4°C° 0.1 mm 6 mps 705 mmHg 84%
    13:00 -4°C° 0.1 mm 7 mps 705 mmHg 83%
    14:00 -4°C° 0.1 mm 7 mps 704 mmHg 82%
    15:00 -4°C° 0 mm 7 mps 704 mmHg 78%
    16:00 -4°C° 0 mm 7 mps 704 mmHg 75%
    17:00 -3°C° 0 mm 7 mps 704 mmHg 71%
    18:00 -4°C° 0.2 mm 7 mps 704 mmHg 75%
    19:00 -6°C° 0.2 mm 7 mps 704 mmHg 78%
    20:00 -6°C° 0.2 mm 7 mps 705 mmHg 82%
    21:00 -6°C° 0.2 mm 7 mps 705 mmHg 82%
    22:00 -5°C° 0.2 mm 6 mps 705 mmHg 83%
    23:00 -6°C° 0.2 mm 6 mps 705 mmHg 83%
    Show more